TimeCDT,TemperatureF,Dew PointF,Humidity,Sea Level PressureIn,VisibilityMPH,Wind Direction,Wind SpeedMPH,Gust SpeedMPH,PrecipitationIn,Events,Conditions,WindDirDegrees,DateUTC
12:53 AM,39.9,37.9,93,30.32,10.0,Calm,Calm,-,N/A,,Clear,0,2013-05-26 05:53:00
1:53 AM,39.0,37.0,93,30.32,10.0,NNW,3.5,-,N/A,,Clear,340,2013-05-26 06:53:00
2:53 AM,41.0,35.1,79,30.32,10.0,North,3.5,-,N/A,,Clear,360,2013-05-26 07:53:00
3:53 AM,41.0,35.1,79,30.31,10.0,NNE,3.5,-,N/A,,Clear,20,2013-05-26 08:53:00
4:53 AM,39.0,34.0,82,30.32,10.0,NNE,4.6,-,N/A,,Clear,20,2013-05-26 09:53:00
5:53 AM,41.0,37.0,86,30.33,10.0,NNW,3.5,-,N/A,,Clear,330,2013-05-26 10:53:00
6:53 AM,45.0,41.0,86,30.35,10.0,NE,4.6,-,N/A,,Clear,50,2013-05-26 11:53:00
7:53 AM,50.0,43.0,77,30.34,10.0,NE,8.1,-,N/A,,Clear,50,2013-05-26 12:53:00
8:53 AM,52.0,45.0,77,30.35,10.0,NE,8.1,-,N/A,,Clear,50,2013-05-26 13:53:00
9:53 AM,53.1,44.1,71,30.33,10.0,NE,8.1,-,N/A,,Clear,50,2013-05-26 14:53:00
10:53 AM,55.0,44.1,67,30.34,10.0,East,4.6,-,N/A,,Clear,80,2013-05-26 15:53:00
11:53 AM,57.9,44.1,60,30.34,10.0,Variable,5.8,-,N/A,,Clear,0,2013-05-26 16:53:00
12:53 PM,57.9,44.1,60,30.33,10.0,East,6.9,-,N/A,,Clear,100,2013-05-26 17:53:00
1:53 PM,59.0,45.0,60,30.31,10.0,NE,6.9,-,N/A,,Clear,50,2013-05-26 18:53:00
2:53 PM,59.0,43.0,55,30.30,10.0,East,8.1,-,N/A,,Clear,80,2013-05-26 19:53:00
3:53 PM,59.0,42.1,53,30.29,10.0,ESE,5.8,-,N/A,,Clear,120,2013-05-26 20:53:00
4:53 PM,59.0,42.1,53,30.27,10.0,Variable,5.8,-,N/A,,Clear,0,2013-05-26 21:53:00
5:53 PM,55.0,42.1,62,30.25,10.0,NE,9.2,-,N/A,,Clear,50,2013-05-26 22:53:00
6:53 PM,52.0,41.0,66,30.23,10.0,ENE,11.5,-,N/A,,Mostly Cloudy,60,2013-05-26 23:53:00
7:53 PM,48.9,41.0,74,30.22,10.0,ENE,6.9,-,N/A,,Scattered Clouds,60,2013-05-27 00:53:00
8:53 PM,50.0,39.9,68,30.24,10.0,NE,4.6,-,N/A,,Overcast,40,2013-05-27 01:53:00
9:53 PM,50.0,41.0,71,30.24,10.0,NE,5.8,-,N/A,,Overcast,40,2013-05-27 02:53:00
10:53 PM,48.9,39.9,71,30.21,10.0,ENE,4.6,-,N/A,,Overcast,60,2013-05-27 03:53:00
11:53 PM,48.9,39.0,69,30.22,10.0,NE,5.8,-,N/A,,Overcast,40,2013-05-27 04:53:00